Time,TemperatureF,DewpointF,PressureIn,WindDirection,WindDirectionDegrees,WindSpeedMPH,WindSpeedGustMPH,Humidity,HourlyPrecipIn,Conditions,Clouds,dailyrainin,SoftwareType,DateUTC
2013-02-16 00:03:00,37.8,34.8,29.80,North,0,0.0,0.7,89,0.00,,,0.00,WUHU216HW,2013-02-16 08:03:00,
2013-02-16 00:08:00,37.8,34.6,29.81,North,0,0.0,0.4,88,0.00,,,0.00,WUHU216HW,2013-02-16 08:08:00,
2013-02-16 00:13:00,37.8,34.8,29.80,North,0,0.0,0.0,89,0.00,,,0.00,WUHU216HW,2013-02-16 08:13:00,
2013-02-16 00:18:00,37.6,34.7,29.80,North,0,0.0,0.0,89,0.00,,,0.00,WUHU216HW,2013-02-16 08:18:00,
2013-02-16 00:23:00,37.6,34.7,29.80,North,0,0.0,0.0,89,0.00,,,0.00,WUHU216HW,2013-02-16 08:23:00,
2013-02-16 00:28:00,37.4,34.5,29.80,North,0,0.0,0.0,89,0.00,,,0.00,WUHU216HW,2013-02-16 08:28:00,
2013-02-16 00:33:00,37.4,34.5,29.80,North,0,0.0,0.0,89,0.00,,,0.00,WUHU216HW,2013-02-16 08:33:00,
2013-02-16 00:38:00,37.4,34.2,29.80,North,0,0.7,1.1,88,0.00,,,0.00,WUHU216HW,2013-02-16 08:38:00,
2013-02-16 00:43:00,37.3,34.0,29.80,North,0,0.0,1.1,88,0.00,,,0.00,WUHU216HW,2013-02-16 08:43:00,
2013-02-16 00:48:00,37.3,34.0,29.80,North,0,0.7,0.7,88,0.00,,,0.00,WUHU216HW,2013-02-16 08:48:00,
2013-02-16 00:53:00,37.1,33.9,29.79,North,0,0.4,0.7,88,0.00,,,0.00,WUHU216HW,2013-02-16 08:53:00,
2013-02-16 00:58:00,37.1,33.9,29.79,North,0,0.0,0.4,88,0.00,,,0.00,WUHU216HW,2013-02-16 08:58:00,
2013-02-16 01:03:00,37.1,33.9,29.79,North,0,0.0,0.4,88,0.00,,,0.00,WUHU216HW,2013-02-16 09:03:00,
2013-02-16 01:08:00,37.1,33.9,29.79,North,0,0.0,0.4,88,0.00,,,0.00,WUHU216HW,2013-02-16 09:08:00,
2013-02-16 01:13:00,37.1,33.9,29.79,North,0,0.9,1.1,88,0.00,,,0.00,WUHU216HW,2013-02-16 09:13:00,
2013-02-16 01:18:00,37.1,33.9,29.79,North,0,0.0,1.1,88,0.00,,,0.00,WUHU216HW,2013-02-16 09:18:00,
2013-02-16 01:23:00,36.9,33.7,29.79,North,0,0.0,0.0,88,0.00,,,0.00,WUHU216HW,2013-02-16 09:23:00,
2013-02-16 01:28:00,37.1,33.9,29.79,SE,135,0.9,1.3,88,0.00,,,0.00,WUHU216HW,2013-02-16 09:28:00,
2013-02-16 01:33:00,37.1,34.1,29.78,ESE,113,0.9,1.6,89,0.00,,,0.00,WUHU216HW,2013-02-16 09:33:00,
2013-02-16 01:38:00,37.3,34.3,29.78,SE,135,1.3,1.8,89,0.00,,,0.00,WUHU216HW,2013-02-16 09:38:00,
2013-02-16 01:43:00,37.4,34.5,29.78,SE,135,1.1,1.8,89,0.00,,,0.00,WUHU216HW,2013-02-16 09:43:00,
2013-02-16 01:48:00,37.4,34.7,29.78,SSE,158,1.8,2.5,90,0.00,,,0.00,WUHU216HW,2013-02-16 09:48:00,
2013-02-16 01:53:00,37.6,34.9,29.78,SSE,158,2.2,2.5,90,0.00,,,0.00,WUHU216HW,2013-02-16 09:53:00,
2013-02-16 01:58:00,37.8,35.1,29.78,SSE,158,2.5,3.4,90,0.00,,,0.00,WUHU216HW,2013-02-16 09:58:00,
2013-02-16 02:03:00,38.2,35.5,29.78,SSE,158,4.3,4.3,90,0.00,,,0.00,WUHU216HW,2013-02-16 10:03:00,
2013-02-16 02:08:00,38.3,35.6,29.78,SE,135,2.7,4.3,90,0.00,,,0.00,WUHU216HW,2013-02-16 10:08:00,
2013-02-16 02:13:00,38.5,35.8,29.78,SSE,158,2.2,5.4,90,0.00,,,0.00,WUHU216HW,2013-02-16 10:13:00,
2013-02-16 02:18:00,38.7,36.0,29.78,SSW,203,2.9,5.4,90,0.00,,,0.00,WUHU216HW,2013-02-16 10:18:00,
2013-02-16 02:23:00,38.9,36.5,29.78,SSE,158,2.9,5.6,91,0.00,,,0.00,WUHU216HW,2013-02-16 10:23:00,
2013-02-16 02:28:00,39.1,36.6,29.77,SSE,158,2.5,5.6,91,0.00,,,0.00,WUHU216HW,2013-02-16 10:28:00,
2013-02-16 02:33:00,39.1,36.6,29.77,SE,135,2.5,4.0,91,0.00,,,0.00,WUHU216HW,2013-02-16 10:33:00,
2013-02-16 02:38:00,39.1,36.6,29.77,SE,135,2.9,4.5,91,0.00,,,0.00,WUHU216HW,2013-02-16 10:38:00,
2013-02-16 02:43:00,39.1,36.6,29.77,SSE,158,3.6,4.5,91,0.00,,,0.00,WUHU216HW,2013-02-16 10:43:00,
2013-02-16 02:48:00,39.1,36.6,29.77,SSE,158,3.8,4.0,91,0.00,,,0.00,WUHU216HW,2013-02-16 10:48:00,
2013-02-16 02:53:00,39.1,36.6,29.77,SSE,158,2.9,4.0,91,0.00,,,0.00,WUHU216HW,2013-02-16 10:53:00,
2013-02-16 02:58:00,39.1,36.6,29.77,SE,135,3.1,3.6,91,0.00,,,0.00,WUHU216HW,2013-02-16 10:58:00,
2013-02-16 03:03:00,39.1,36.6,29.77,SSE,158,1.3,3.1,91,0.00,,,0.00,WUHU216HW,2013-02-16 11:03:00,
2013-02-16 03:08:00,39.2,36.8,29.76,SSW,203,1.1,2.9,91,0.00,,,0.00,WUHU216HW,2013-02-16 11:08:00,
2013-02-16 03:13:00,39.2,36.8,29.77,SSE,158,2.0,2.5,91,0.00,,,0.00,WUHU216HW,2013-02-16 11:13:00,
2013-02-16 03:18:00,39.2,36.8,29.76,SSE,158,2.7,2.7,91,0.00,,,0.00,WUHU216HW,2013-02-16 11:18:00,
2013-02-16 03:23:00,39.2,36.8,29.76,SSE,158,2.9,2.9,91,0.00,,,0.00,WUHU216HW,2013-02-16 11:23:00,
2013-02-16 03:28:00,39.2,36.8,29.76,SSW,203,4.0,4.0,91,0.00,,,0.00,WUHU216HW,2013-02-16 11:28:00,
2013-02-16 03:33:00,39.4,37.0,29.76,SSE,158,3.1,4.0,91,0.00,,,0.00,WUHU216HW,2013-02-16 11:33:00,
2013-02-16 03:38:00,39.6,37.2,29.76,South,180,3.1,3.1,91,0.00,,,0.00,WUHU216HW,2013-02-16 11:38:00,
2013-02-16 03:43:00,39.8,37.6,29.76,South,180,1.6,3.6,92,0.00,,,0.00,WUHU216HW,2013-02-16 11:43:00,
2013-02-16 03:48:00,40.0,37.8,29.76,SW,225,6.3,6.3,92,0.00,,,0.00,WUHU216HW,2013-02-16 11:48:00,
2013-02-16 03:53:00,40.5,38.6,29.76,SW,225,4.5,6.9,93,0.00,,,0.00,WUHU216HW,2013-02-16 11:53:00,
2013-02-16 03:58:00,40.7,38.5,29.76,SSW,203,2.5,6.9,92,0.00,,,0.00,WUHU216HW,2013-02-16 11:58:00,
2013-02-16 04:03:00,40.9,39.0,29.75,SSW,203,3.4,6.3,93,0.00,,,0.00,WUHU216HW,2013-02-16 12:03:00,
2013-02-16 04:08:00,41.0,39.2,29.75,SW,225,6.3,6.5,93,0.00,,,0.00,WUHU216HW,2013-02-16 12:08:00,
2013-02-16 04:13:00,41.4,39.5,29.75,SW,225,5.4,7.6,93,0.00,,,0.00,WUHU216HW,2013-02-16 12:13:00,
2013-02-16 04:18:00,41.6,39.7,29.75,SSW,203,6.3,7.6,93,0.00,,,0.00,WUHU216HW,2013-02-16 12:18:00,
2013-02-16 04:23:00,41.8,39.9,29.75,SW,225,8.3,8.3,93,0.00,,,0.00,WUHU216HW,2013-02-16 12:23:00,
2013-02-16 04:28:00,41.9,40.1,29.75,SSW,203,4.7,8.3,93,0.00,,,0.00,WUHU216HW,2013-02-16 12:28:00,
2013-02-16 04:33:00,42.1,40.2,29.75,SSW,203,7.2,8.1,93,0.00,,,0.00,WUHU216HW,2013-02-16 12:33:00,
2013-02-16 04:38:00,42.3,40.4,29.75,SSW,203,8.9,8.9,93,0.00,,,0.00,WUHU216HW,2013-02-16 12:38:00,
2013-02-16 04:43:00,42.5,40.6,29.75,SSW,203,5.4,9.2,93,0.00,,,0.00,WUHU216HW,2013-02-16 12:43:00,
2013-02-16 04:48:00,42.8,41.2,29.75,South,180,11.0,11.0,94,0.00,,,0.00,WUHU216HW,2013-02-16 12:48:00,
2013-02-16 04:53:00,43.0,41.4,29.75,West,270,8.5,11.0,94,0.00,,,0.00,WUHU216HW,2013-02-16 12:53:00,
2013-02-16 04:58:00,43.2,41.6,29.75,NW,315,4.0,8.5,94,0.00,,,0.00,WUHU216HW,2013-02-16 12:58:00,
2013-02-16 05:03:00,43.2,41.3,29.75,SW,225,2.0,7.8,93,0.00,,,0.00,WUHU216HW,2013-02-16 13:03:00,
2013-02-16 05:08:00,43.4,41.5,29.75,WNW,293,2.0,5.6,93,0.00,,,0.00,WUHU216HW,2013-02-16 13:08:00,
2013-02-16 05:13:00,43.4,41.5,29.75,SW,225,4.5,5.6,93,0.00,,,0.00,WUHU216HW,2013-02-16 13:13:00,
2013-02-16 05:18:00,43.4,41.5,29.76,WNW,293,2.5,4.5,93,0.00,,,0.00,WUHU216HW,2013-02-16 13:18:00,
2013-02-16 05:23:00,43.6,41.7,29.76,WNW,293,2.5,6.3,93,0.00,,,0.00,WUHU216HW,2013-02-16 13:23:00,
2013-02-16 05:28:00,43.6,41.7,29.76,NW,315,3.6,6.3,93,0.00,,,0.00,WUHU216HW,2013-02-16 13:28:00,
2013-02-16 05:33:00,43.6,41.7,29.76,SSW,203,1.3,5.6,93,0.00,,,0.00,WUHU216HW,2013-02-16 13:33:00,
2013-02-16 05:38:00,43.7,41.9,29.76,WNW,293,3.4,5.6,93,0.00,,,0.00,WUHU216HW,2013-02-16 13:38:00,
2013-02-16 05:43:00,43.7,41.9,29.76,SSW,203,2.7,4.7,93,0.00,,,0.00,WUHU216HW,2013-02-16 13:43:00,
2013-02-16 05:48:00,43.7,41.9,29.76,WSW,248,2.7,5.1,93,0.00,,,0.00,WUHU216HW,2013-02-16 13:48:00,
2013-02-16 05:53:00,43.9,42.0,29.76,West,270,2.0,5.1,93,0.00,,,0.00,WUHU216HW,2013-02-16 13:53:00,
2013-02-16 05:58:00,43.9,42.0,29.76,WSW,248,3.8,6.3,93,0.00,,,0.00,WUHU216HW,2013-02-16 13:58:00,
2013-02-16 06:03:00,44.1,42.2,29.76,WSW,248,2.9,6.3,93,0.00,,,0.00,WUHU216HW,2013-02-16 14:03:00,
2013-02-16 06:08:00,44.1,42.2,29.76,WSW,248,1.1,4.7,93,0.00,,,0.00,WUHU216HW,2013-02-16 14:08:00,
2013-02-16 06:13:00,44.3,42.4,29.76,WSW,248,1.8,4.9,93,0.00,,,0.00,WUHU216HW,2013-02-16 14:13:00,
2013-02-16 06:18:00,44.3,42.4,29.76,SW,225,4.5,4.9,93,0.00,,,0.00,WUHU216HW,2013-02-16 14:18:00,
2013-02-16 06:23:00,44.3,42.4,29.76,West,270,6.9,6.9,93,0.00,,,0.00,WUHU216HW,2013-02-16 14:23:00,
2013-02-16 06:28:00,44.3,42.4,29.76,SW,225,5.1,6.9,93,0.00,,,0.00,WUHU216HW,2013-02-16 14:28:00,
2013-02-16 06:33:00,44.5,42.6,29.76,WSW,248,3.4,5.1,93,0.00,,,0.00,WUHU216HW,2013-02-16 14:33:00,
2013-02-16 06:38:00,44.5,42.6,29.77,West,270,1.8,4.3,93,0.00,,,0.00,WUHU216HW,2013-02-16 14:38:00,
2013-02-16 06:43:00,44.5,42.6,29.76,SW,225,1.1,3.6,93,0.00,,,0.00,WUHU216HW,2013-02-16 14:43:00,
2013-02-16 06:48:00,44.5,42.6,29.77,SW,225,2.9,3.8,93,0.00,,,0.00,WUHU216HW,2013-02-16 14:48:00,
2013-02-16 06:53:00,44.5,42.6,29.76,South,180,4.0,4.7,93,0.00,,,0.00,WUHU216HW,2013-02-16 14:53:00,
2013-02-16 06:58:00,44.6,42.5,29.76,WSW,248,2.7,4.7,92,0.00,,,0.00,WUHU216HW,2013-02-16 14:58:00,
2013-02-16 07:03:00,44.6,42.5,29.76,SW,225,2.0,4.3,92,0.00,,,0.00,WUHU216HW,2013-02-16 15:03:00,
2013-02-16 07:08:00,44.6,42.5,29.76,WSW,248,2.5,4.3,92,0.00,,,0.00,WUHU216HW,2013-02-16 15:08:00,
2013-02-16 07:13:00,44.6,42.5,29.77,SW,225,4.0,4.0,92,0.00,,,0.00,WUHU216HW,2013-02-16 15:13:00,
2013-02-16 07:18:00,44.8,42.7,29.77,West,270,3.1,4.7,92,0.00,,,0.00,WUHU216HW,2013-02-16 15:18:00,
2013-02-16 07:23:00,44.8,42.7,29.77,WNW,293,2.9,4.7,92,0.00,,,0.00,WUHU216HW,2013-02-16 15:23:00,
2013-02-16 07:28:00,44.8,42.7,29.77,WSW,248,1.3,3.8,92,0.00,,,0.00,WUHU216HW,2013-02-16 15:28:00,
2013-02-16 07:33:00,44.8,42.7,29.76,SW,225,1.1,3.8,92,0.00,,,0.00,WUHU216HW,2013-02-16 15:33:00,
2013-02-16 07:38:00,45.0,42.8,29.77,SW,225,2.5,3.6,92,0.00,,,0.00,WUHU216HW,2013-02-16 15:38:00,
2013-02-16 07:43:00,45.0,42.6,29.77,SSW,203,4.3,4.9,91,0.00,,,0.00,WUHU216HW,2013-02-16 15:43:00,
2013-02-16 07:48:00,45.0,42.6,29.78,South,180,2.5,4.9,91,0.00,,,0.00,WUHU216HW,2013-02-16 15:48:00,
2013-02-16 07:53:00,45.0,42.6,29.78,WSW,248,6.7,6.7,91,0.00,,,0.00,WUHU216HW,2013-02-16 15:53:00,
2013-02-16 07:58:00,45.0,42.6,29.78,SSW,203,3.4,6.7,91,0.00,,,0.00,WUHU216HW,2013-02-16 15:58:00,
2013-02-16 08:03:00,45.0,42.6,29.78,SSW,203,5.4,5.6,91,0.00,,,0.00,WUHU216HW,2013-02-16 16:03:00,
2013-02-16 08:08:00,45.0,42.6,29.77,WSW,248,2.5,5.6,91,0.00,,,0.00,WUHU216HW,2013-02-16 16:08:00,
2013-02-16 08:14:00,45.2,42.8,29.78,SW,225,1.6,2.9,91,0.00,,,0.00,WUHU216HW,2013-02-16 16:14:00,
2013-02-16 08:19:00,45.2,42.8,29.78,West,270,3.1,4.5,91,0.00,,,0.00,WUHU216HW,2013-02-16 16:19:00,
2013-02-16 08:24:00,45.2,43.0,29.78,SW,225,5.1,5.1,92,0.00,,,0.00,WUHU216HW,2013-02-16 16:24:00,
2013-02-16 08:29:00,45.2,42.8,29.78,South,180,2.5,5.1,91,0.00,,,0.00,WUHU216HW,2013-02-16 16:29:00,
2013-02-16 08:34:00,45.0,42.6,29.78,WSW,248,1.3,6.3,91,0.00,,,0.00,WUHU216HW,2013-02-16 16:34:00,
2013-02-16 08:39:00,45.2,42.8,29.78,WSW,248,4.0,6.3,91,0.00,,,0.00,WUHU216HW,2013-02-16 16:39:00,
2013-02-16 08:44:00,45.2,42.8,29.79,SW,225,2.5,4.7,91,0.00,,,0.00,WUHU216HW,2013-02-16 16:44:00,
2013-02-16 08:49:00,45.2,42.8,29.78,SW,225,2.7,4.7,91,0.00,,,0.00,WUHU216HW,2013-02-16 16:49:00,
2013-02-16 08:54:00,45.4,42.9,29.78,WSW,248,0.4,4.3,91,0.00,,,0.00,WUHU216HW,2013-02-16 16:54:00,
2013-02-16 08:59:00,45.4,42.9,29.79,WSW,248,4.7,4.7,91,0.00,,,0.00,WUHU216HW,2013-02-16 16:59:00,
2013-02-16 09:04:00,45.4,42.9,29.78,SW,225,3.6,4.7,91,0.00,,,0.00,WUHU216HW,2013-02-16 17:04:00,
2013-02-16 09:09:00,45.5,43.1,29.79,West,270,2.5,5.6,91,0.00,,,0.00,WUHU216HW,2013-02-16 17:09:00,
2013-02-16 09:14:00,45.7,43.3,29.78,SSW,203,1.8,5.6,91,0.00,,,0.00,WUHU216HW,2013-02-16 17:14:00,
2013-02-16 09:19:00,45.9,43.2,29.78,SSE,158,3.6,4.3,90,0.00,,,0.00,WUHU216HW,2013-02-16 17:19:00,
2013-02-16 09:24:00,46.1,43.4,29.78,SSW,203,3.4,5.6,90,0.00,,,0.00,WUHU216HW,2013-02-16 17:24:00,
2013-02-16 09:29:00,46.3,43.6,29.78,SSW,203,2.0,5.6,90,0.00,,,0.00,WUHU216HW,2013-02-16 17:29:00,
2013-02-16 09:34:00,46.4,43.7,29.78,SSE,158,1.6,5.1,90,0.00,,,0.00,WUHU216HW,2013-02-16 17:34:00,
2013-02-16 09:39:00,47.0,44.0,29.78,SSW,203,3.6,6.3,89,0.00,,,0.00,WUHU216HW,2013-02-16 17:39:00,
2013-02-16 09:44:00,47.0,43.7,29.78,SW,225,2.5,7.6,88,0.00,,,0.00,WUHU216HW,2013-02-16 17:44:00,
2013-02-16 09:49:00,47.2,43.8,29.78,SW,225,1.8,7.6,88,0.00,,,0.00,WUHU216HW,2013-02-16 17:49:00,
2013-02-16 09:54:00,47.3,44.0,29.78,SSW,203,4.0,4.0,88,0.00,,,0.00,WUHU216HW,2013-02-16 17:54:00,
2013-02-16 09:59:00,47.5,44.2,29.78,WSW,248,3.4,4.7,88,0.00,,,0.00,WUHU216HW,2013-02-16 17:59:00,
2013-02-16 10:04:00,47.5,44.2,29.78,SSW,203,3.1,4.7,88,0.00,,,0.00,WUHU216HW,2013-02-16 18:04:00,
2013-02-16 10:09:00,47.9,44.6,29.79,WSW,248,0.7,4.0,88,0.00,,,0.00,WUHU216HW,2013-02-16 18:09:00,
2013-02-16 10:14:00,48.1,44.7,29.79,SW,225,1.3,2.9,88,0.00,,,0.00,WUHU216HW,2013-02-16 18:14:00,
2013-02-16 10:19:00,48.4,44.7,29.79,SSW,203,0.4,2.9,87,0.00,,,0.00,WUHU216HW,2013-02-16 18:19:00,
2013-02-16 10:24:00,48.6,44.9,29.79,WSW,248,1.6,1.8,87,0.00,,,0.00,WUHU216HW,2013-02-16 18:24:00,
2013-02-16 10:29:00,48.6,44.3,29.79,WSW,248,0.7,2.5,85,0.00,,,0.00,WUHU216HW,2013-02-16 18:29:00,
2013-02-16 10:34:00,49.0,44.9,29.78,WSW,248,1.8,2.5,86,0.00,,,0.00,WUHU216HW,2013-02-16 18:34:00,
2013-02-16 10:39:00,49.0,44.7,29.78,WSW,248,2.2,2.2,85,0.00,,,0.00,WUHU216HW,2013-02-16 18:39:00,
2013-02-16 10:44:00,49.1,44.8,29.78,West,270,1.1,2.2,85,0.00,,,0.00,WUHU216HW,2013-02-16 18:44:00,
2013-02-16 10:49:00,49.3,44.7,29.78,West,270,1.3,2.2,84,0.00,,,0.00,WUHU216HW,2013-02-16 18:49:00,
2013-02-16 10:54:00,49.3,44.3,29.78,WSW,248,1.1,2.7,83,0.00,,,0.00,WUHU216HW,2013-02-16 18:54:00,
2013-02-16 10:59:00,49.3,44.3,29.77,WSW,248,1.8,2.7,83,0.00,,,0.00,WUHU216HW,2013-02-16 18:59:00,
2013-02-16 11:04:00,49.7,45.0,29.77,SW,225,1.6,4.0,84,0.00,,,0.00,WUHU216HW,2013-02-16 19:04:00,
2013-02-16 11:09:00,49.3,44.3,29.77,SSW,203,0.9,4.0,83,0.00,,,0.00,WUHU216HW,2013-02-16 19:09:00,
2013-02-16 11:14:00,49.3,44.3,29.77,WSW,248,3.4,3.4,83,0.00,,,0.00,WUHU216HW,2013-02-16 19:14:00,
2013-02-16 11:19:00,49.1,44.5,29.76,SE,135,0.0,3.4,84,0.00,,,0.00,WUHU216HW,2013-02-16 19:19:00,
2013-02-16 11:24:00,49.5,44.5,29.76,SSE,158,0.4,2.9,83,0.00,,,0.00,WUHU216HW,2013-02-16 19:24:00,
2013-02-16 11:29:00,50.2,45.6,29.76,SSW,203,0.4,3.4,84,0.00,,,0.00,WUHU216HW,2013-02-16 19:29:00,
2013-02-16 11:34:00,50.9,45.3,29.76,SW,225,6.7,9.6,81,0.00,,,0.00,WUHU216HW,2013-02-16 19:34:00,
2013-02-16 11:39:00,51.7,45.4,29.76,WSW,248,6.9,9.6,79,0.00,,,0.00,WUHU216HW,2013-02-16 19:39:00,
2013-02-16 11:44:00,52.2,44.9,29.76,WNW,293,5.8,6.9,76,0.00,,,0.00,WUHU216HW,2013-02-16 19:44:00,
2013-02-16 11:49:00,52.9,45.2,29.76,SSW,203,3.4,6.9,75,0.00,,,0.00,WUHU216HW,2013-02-16 19:49:00,
2013-02-16 11:54:00,53.6,45.9,29.76,SSW,203,6.9,6.9,75,0.00,,,0.00,WUHU216HW,2013-02-16 19:54:00,
2013-02-16 11:59:00,54.0,45.2,29.76,SW,225,5.4,8.1,72,0.00,,,0.00,WUHU216HW,2013-02-16 19:59:00,
2013-02-16 12:04:00,54.0,44.1,29.76,WSW,248,3.4,8.5,69,0.00,,,0.00,WUHU216HW,2013-02-16 20:04:00,
2013-02-16 12:09:00,53.5,43.6,29.76,WNW,293,5.8,8.5,69,0.00,,,0.00,WUHU216HW,2013-02-16 20:09:00,
2013-02-16 12:14:00,53.1,44.0,29.76,SSW,203,6.0,6.5,71,0.00,,,0.00,WUHU216HW,2013-02-16 20:14:00,
2013-02-16 12:19:00,52.9,44.2,29.75,NNW,338,2.5,6.5,72,0.00,,,0.00,WUHU216HW,2013-02-16 20:19:00,
2013-02-16 12:24:00,52.7,42.9,29.75,West,270,5.4,6.3,69,0.00,,,0.00,WUHU216HW,2013-02-16 20:24:00,
2013-02-16 12:29:00,52.9,43.0,29.74,West,270,8.5,8.9,69,0.00,,,0.00,WUHU216HW,2013-02-16 20:29:00,
2013-02-16 12:34:00,52.7,42.9,29.74,WSW,248,5.4,8.9,69,0.00,,,0.00,WUHU216HW,2013-02-16 20:34:00,
2013-02-16 12:39:00,52.9,42.7,29.74,SW,225,4.7,7.8,68,0.00,,,0.00,WUHU216HW,2013-02-16 20:39:00,
2013-02-16 12:44:00,53.5,42.8,29.74,WSW,248,7.6,7.6,67,0.00,,,0.00,WUHU216HW,2013-02-16 20:44:00,
2013-02-16 12:49:00,53.5,41.6,29.74,SW,225,7.4,8.9,64,0.00,,,0.00,WUHU216HW,2013-02-16 20:49:00,
2013-02-16 12:54:00,53.6,42.1,29.73,SW,225,7.8,8.9,65,0.00,,,0.00,WUHU216HW,2013-02-16 20:54:00,
2013-02-16 12:59:00,53.8,42.3,29.73,South,180,6.3,9.2,65,0.00,,,0.00,WUHU216HW,2013-02-16 20:59:00,
2013-02-16 13:04:00,54.0,42.5,29.73,SSW,203,8.9,9.2,65,0.00,,,0.00,WUHU216HW,2013-02-16 21:04:00,
2013-02-16 13:09:00,54.2,42.7,29.73,WSW,248,4.7,8.9,65,0.00,,,0.00,WUHU216HW,2013-02-16 21:09:00,
2013-02-16 13:14:00,54.5,43.0,29.73,South,180,4.0,6.0,65,0.00,,,0.00,WUHU216HW,2013-02-16 21:14:00,
2013-02-16 13:19:00,55.1,43.1,29.73,SSW,203,6.9,7.8,64,0.00,,,0.00,WUHU216HW,2013-02-16 21:19:00,
2013-02-16 13:24:00,55.1,42.3,29.73,SW,225,6.3,8.3,62,0.00,,,0.00,WUHU216HW,2013-02-16 21:24:00,
2013-02-16 13:29:00,54.9,42.1,29.73,SSW,203,8.7,12.1,62,0.00,,,0.00,WUHU216HW,2013-02-16 21:29:00,
2013-02-16 13:34:00,55.3,42.9,29.73,SSW,203,9.2,12.1,63,0.00,,,0.00,WUHU216HW,2013-02-16 21:34:00,
2013-02-16 13:39:00,55.4,42.6,29.73,WSW,248,8.1,11.4,62,0.00,,,0.00,WUHU216HW,2013-02-16 21:39:00,
2013-02-16 13:44:00,55.6,44.0,29.73,North,0,4.7,11.2,65,0.00,,,0.00,WUHU216HW,2013-02-16 21:44:00,
2013-02-16 13:49:00,54.7,44.7,29.73,North,0,4.5,11.2,69,0.00,,,0.00,WUHU216HW,2013-02-16 21:49:00,
2013-02-16 13:54:00,54.0,44.8,29.73,NE,45,5.6,6.0,71,0.00,,,0.00,WUHU216HW,2013-02-16 21:54:00,
2013-02-16 13:59:00,53.8,45.0,29.73,NW,315,6.0,8.5,72,0.00,,,0.00,WUHU216HW,2013-02-16 21:59:00,
2013-02-16 14:04:00,53.3,44.8,29.73,ENE,68,9.2,9.2,73,0.00,,,0.00,WUHU216HW,2013-02-16 22:04:00,
2013-02-16 14:09:00,53.1,44.6,29.73,North,0,4.9,9.2,73,0.00,,,0.00,WUHU216HW,2013-02-16 22:09:00,
2013-02-16 14:14:00,52.0,44.4,29.73,NNE,23,4.5,7.8,75,0.00,,,0.00,WUHU216HW,2013-02-16 22:14:00,
2013-02-16 14:19:00,51.5,44.6,29.73,NNE,23,5.4,7.4,77,0.00,,,0.00,WUHU216HW,2013-02-16 22:19:00,
2013-02-16 14:24:00,51.1,44.5,29.73,NE,45,7.8,7.8,78,0.00,,,0.00,WUHU216HW,2013-02-16 22:24:00,
2013-02-16 14:29:00,51.1,44.5,29.73,NNE,23,3.6,7.8,78,0.00,,,0.00,WUHU216HW,2013-02-16 22:29:00,
2013-02-16 14:34:00,50.9,44.3,29.74,ENE,68,6.5,7.6,78,0.00,,,0.00,WUHU216HW,2013-02-16 22:34:00,
2013-02-16 14:39:00,51.1,44.5,29.74,ENE,68,4.7,7.6,78,0.00,,,0.00,WUHU216HW,2013-02-16 22:39:00,
2013-02-16 14:44:00,51.1,44.5,29.74,East,90,8.5,8.5,78,0.00,,,0.00,WUHU216HW,2013-02-16 22:44:00,
2013-02-16 14:49:00,51.3,44.6,29.74,North,0,3.4,8.5,78,0.00,,,0.00,WUHU216HW,2013-02-16 22:49:00,
2013-02-16 14:54:00,50.8,44.1,29.74,NE,45,4.3,6.7,78,0.00,,,0.00,WUHU216HW,2013-02-16 22:54:00,
2013-02-16 14:59:00,50.2,43.6,29.74,East,90,4.7,6.7,78,0.00,,,0.00,WUHU216HW,2013-02-16 22:59:00,
2013-02-16 15:04:00,50.4,43.7,29.75,ENE,68,4.7,6.5,78,0.00,,,0.00,WUHU216HW,2013-02-16 23:04:00,
2013-02-16 15:09:00,50.2,43.3,29.74,North,0,4.3,6.5,77,0.00,,,0.00,WUHU216HW,2013-02-16 23:09:00,
2013-02-16 15:14:00,49.9,42.9,29.75,ENE,68,5.4,5.6,77,0.00,,,0.00,WUHU216HW,2013-02-16 23:14:00,
2013-02-16 15:19:00,49.3,42.4,29.75,NE,45,2.5,6.9,77,0.00,,,0.00,WUHU216HW,2013-02-16 23:19:00,
2013-02-16 15:24:00,49.3,42.7,29.75,North,0,3.1,6.9,78,0.00,,,0.00,WUHU216HW,2013-02-16 23:24:00,
2013-02-16 15:29:00,49.9,43.2,29.74,NNE,23,2.5,6.3,78,0.00,,,0.00,WUHU216HW,2013-02-16 23:29:00,
2013-02-16 15:34:00,50.4,43.5,29.74,NNE,23,2.5,6.3,77,0.00,,,0.00,WUHU216HW,2013-02-16 23:34:00,
2013-02-16 15:39:00,50.8,43.8,29.75,ENE,68,1.8,5.4,77,0.00,,,0.00,WUHU216HW,2013-02-16 23:39:00,
2013-02-16 15:44:00,50.8,43.5,29.75,ESE,113,4.3,4.9,76,0.00,,,0.00,WUHU216HW,2013-02-16 23:44:00,
2013-02-16 15:49:00,50.8,43.5,29.75,ENE,68,5.8,6.0,76,0.00,,,0.00,WUHU216HW,2013-02-16 23:49:00,
2013-02-16 15:54:00,50.6,43.3,29.75,ENE,68,3.4,7.2,76,0.00,,,0.00,WUHU216HW,2013-02-16 23:54:00,
2013-02-16 15:59:00,50.2,42.6,29.75,East,90,5.1,7.2,75,0.00,,,0.00,WUHU216HW,2013-02-16 23:59:00,
2013-02-16 16:04:00,50.0,42.4,29.75,NE,45,4.7,5.4,75,0.00,,,0.00,WUHU216HW,2013-02-17 00:04:00,
2013-02-16 16:09:00,50.2,42.9,29.75,SSE,158,2.5,4.7,76,0.00,,,0.00,WUHU216HW,2013-02-17 00:09:00,
2013-02-16 16:14:00,50.6,43.3,29.75,ENE,68,1.8,4.5,76,0.00,,,0.00,WUHU216HW,2013-02-17 00:14:00,
2013-02-16 16:19:00,50.9,43.3,29.75,NE,45,1.8,4.7,75,0.00,,,0.00,WUHU216HW,2013-02-17 00:19:00,
2013-02-16 16:24:00,50.9,43.3,29.75,ENE,68,4.0,4.7,75,0.00,,,0.00,WUHU216HW,2013-02-17 00:24:00,
2013-02-16 16:29:00,51.3,43.7,29.75,SE,135,7.4,7.4,75,0.00,,,0.00,WUHU216HW,2013-02-17 00:29:00,
2013-02-16 16:34:00,51.5,44.2,29.75,East,90,3.1,7.4,76,0.00,,,0.00,WUHU216HW,2013-02-17 00:34:00,
2013-02-16 16:39:00,51.7,44.0,29.75,East,90,8.1,8.1,75,0.00,,,0.00,WUHU216HW,2013-02-17 00:39:00,
2013-02-16 16:44:00,51.3,43.7,29.75,ENE,68,2.7,8.1,75,0.00,,,0.00,WUHU216HW,2013-02-17 00:44:00,
2013-02-16 16:49:00,51.1,43.5,29.75,ENE,68,4.0,5.4,75,0.00,,,0.00,WUHU216HW,2013-02-17 00:49:00,
2013-02-16 16:54:00,50.8,43.1,29.75,East,90,5.4,6.3,75,0.00,,,0.00,WUHU216HW,2013-02-17 00:54:00,
2013-02-16 16:59:00,50.2,42.9,29.75,ESE,113,4.7,6.3,76,0.00,,,0.00,WUHU216HW,2013-02-17 00:59:00,
2013-02-16 17:04:00,49.9,42.6,29.75,East,90,4.7,5.8,76,0.00,,,0.00,WUHU216HW,2013-02-17 01:04:00,
2013-02-16 17:09:00,49.3,42.0,29.75,ESE,113,4.7,5.8,76,0.00,,,0.00,WUHU216HW,2013-02-17 01:09:00,
2013-02-16 17:14:00,49.0,42.0,29.74,ESE,113,4.5,7.6,77,0.00,,,0.00,WUHU216HW,2013-02-17 01:14:00,
2013-02-16 17:19:00,48.4,41.5,29.75,East,90,5.4,8.1,77,0.00,,,0.00,WUHU216HW,2013-02-17 01:19:00,
2013-02-16 17:24:00,47.9,41.3,29.75,ENE,68,3.6,8.1,78,0.00,,,0.00,WUHU216HW,2013-02-17 01:24:00,
2013-02-16 17:29:00,47.5,41.0,29.75,ENE,68,2.5,7.6,78,0.00,,,0.00,WUHU216HW,2013-02-17 01:29:00,
2013-02-16 17:34:00,47.2,41.0,29.75,SSE,158,3.6,7.6,79,0.00,,,0.00,WUHU216HW,2013-02-17 01:34:00,
2013-02-16 17:39:00,46.8,40.3,29.75,SE,135,3.4,7.6,78,0.00,,,0.00,WUHU216HW,2013-02-17 01:39:00,
2013-02-16 17:44:00,46.3,39.8,29.75,ESE,113,3.1,6.3,78,0.00,,,0.00,WUHU216HW,2013-02-17 01:44:00,
2013-02-16 17:49:00,46.1,40.0,29.76,SSE,158,6.0,6.0,79,0.00,,,0.00,WUHU216HW,2013-02-17 01:49:00,
2013-02-16 17:54:00,45.7,39.6,29.76,SE,135,8.5,8.5,79,0.00,,,0.00,WUHU216HW,2013-02-17 01:54:00,
2013-02-16 17:59:00,45.7,39.6,29.76,ESE,113,4.7,8.5,79,0.00,,,0.00,WUHU216HW,2013-02-17 01:59:00,
2013-02-16 18:04:00,45.4,39.6,29.76,SSE,158,3.6,5.6,80,0.00,,,0.00,WUHU216HW,2013-02-17 02:04:00,
2013-02-16 18:09:00,45.2,39.4,29.76,ESE,113,6.9,6.9,80,0.00,,,0.00,WUHU216HW,2013-02-17 02:09:00,
2013-02-16 18:14:00,45.0,39.2,29.76,SE,135,0.4,6.9,80,0.00,,,0.00,WUHU216HW,2013-02-17 02:14:00,
2013-02-16 18:19:00,44.8,39.1,29.76,ESE,113,2.2,4.9,80,0.00,,,0.00,WUHU216HW,2013-02-17 02:19:00,
2013-02-16 18:24:00,44.8,39.3,29.76,SSE,158,1.8,4.7,81,0.00,,,0.00,WUHU216HW,2013-02-17 02:24:00,
2013-02-16 18:29:00,44.6,39.2,29.76,SE,135,2.5,4.7,81,0.00,,,0.00,WUHU216HW,2013-02-17 02:29:00,
2013-02-16 18:34:00,44.5,39.0,29.76,SE,135,3.6,4.7,81,0.00,,,0.00,WUHU216HW,2013-02-17 02:34:00,
2013-02-16 18:39:00,44.3,38.8,29.76,ESE,113,1.1,4.7,81,0.00,,,0.00,WUHU216HW,2013-02-17 02:39:00,
2013-02-16 18:44:00,44.3,39.2,29.76,SE,135,3.8,4.7,82,0.00,,,0.00,WUHU216HW,2013-02-17 02:44:00,
2013-02-16 18:49:00,44.1,39.0,29.76,SE,135,3.8,6.9,82,0.00,,,0.00,WUHU216HW,2013-02-17 02:49:00,
2013-02-16 18:54:00,43.9,39.1,29.76,SSE,158,1.1,6.9,83,0.00,,,0.00,WUHU216HW,2013-02-17 02:54:00,
2013-02-16 18:59:00,43.9,39.1,29.76,SE,135,1.8,3.4,83,0.00,,,0.00,WUHU216HW,2013-02-17 02:59:00,
2013-02-16 19:04:00,43.9,39.1,29.77,SE,135,1.6,2.5,83,0.00,,,0.00,WUHU216HW,2013-02-17 03:04:00,
2013-02-16 19:09:00,43.7,38.9,29.77,SSE,158,3.4,4.3,83,0.00,,,0.00,WUHU216HW,2013-02-17 03:09:00,
2013-02-16 19:14:00,43.9,39.1,29.77,SSE,158,1.8,4.3,83,0.00,,,0.00,WUHU216HW,2013-02-17 03:14:00,
2013-02-16 19:19:00,43.9,39.4,29.77,SSE,158,0.9,2.5,84,0.00,,,0.00,WUHU216HW,2013-02-17 03:19:00,
2013-02-16 19:24:00,43.9,39.4,29.77,SE,135,1.1,2.5,84,0.00,,,0.00,WUHU216HW,2013-02-17 03:24:00,
2013-02-16 19:29:00,43.9,39.4,29.77,South,180,1.1,2.9,84,0.00,,,0.00,WUHU216HW,2013-02-17 03:29:00,
2013-02-16 19:34:00,43.9,39.1,29.77,SSE,158,1.8,2.9,83,0.00,,,0.00,WUHU216HW,2013-02-17 03:34:00,
2013-02-16 19:39:00,43.9,39.1,29.77,SSE,158,3.4,3.6,83,0.00,,,0.00,WUHU216HW,2013-02-17 03:39:00,
2013-02-16 19:44:00,43.9,39.1,29.77,SE,135,1.6,3.6,83,0.00,,,0.00,WUHU216HW,2013-02-17 03:44:00,
2013-02-16 19:49:00,43.7,38.9,29.77,SSW,203,2.0,2.7,83,0.00,,,0.00,WUHU216HW,2013-02-17 03:49:00,
2013-02-16 19:54:00,43.6,38.7,29.77,SW,225,1.3,2.7,83,0.00,,,0.00,WUHU216HW,2013-02-17 03:54:00,
2013-02-16 19:59:00,43.6,38.7,29.77,SSE,158,2.5,2.5,83,0.00,,,0.00,WUHU216HW,2013-02-17 03:59:00,
2013-02-16 20:04:00,43.6,38.7,29.77,SSE,158,1.1,2.5,83,0.00,,,0.00,WUHU216HW,2013-02-17 04:04:00,
2013-02-16 20:09:00,43.6,38.7,29.77,SSW,203,0.4,2.5,83,0.00,,,0.00,WUHU216HW,2013-02-17 04:09:00,
2013-02-16 20:14:00,43.4,38.5,29.77,SW,225,1.8,2.5,83,0.00,,,0.00,WUHU216HW,2013-02-17 04:14:00,
2013-02-16 20:19:00,43.4,38.5,29.77,SSE,158,0.4,1.8,83,0.00,,,0.00,WUHU216HW,2013-02-17 04:19:00,
2013-02-16 20:24:00,43.4,38.5,29.77,SSW,203,2.2,2.5,83,0.00,,,0.00,WUHU216HW,2013-02-17 04:24:00,
2013-02-16 20:29:00,43.2,38.3,29.77,WSW,248,2.5,2.5,83,0.00,,,0.00,WUHU216HW,2013-02-17 04:29:00,
2013-02-16 20:34:00,43.2,38.3,29.78,SSW,203,3.4,4.5,83,0.00,,,0.00,WUHU216HW,2013-02-17 04:34:00,
2013-02-16 20:39:00,43.0,38.2,29.78,WSW,248,2.9,4.5,83,0.00,,,0.00,WUHU216HW,2013-02-17 04:39:00,
2013-02-16 20:44:00,42.8,38.0,29.78,SW,225,2.0,5.4,83,0.00,,,0.00,WUHU216HW,2013-02-17 04:44:00,
2013-02-16 20:49:00,42.8,38.0,29.78,SSE,158,1.1,5.4,83,0.00,,,0.00,WUHU216HW,2013-02-17 04:49:00,
2013-02-16 20:54:00,42.8,38.0,29.79,SE,135,0.2,2.5,83,0.00,,,0.00,WUHU216HW,2013-02-17 04:54:00,
2013-02-16 20:59:00,42.8,38.0,29.79,South,180,0.7,1.8,83,0.00,,,0.00,WUHU216HW,2013-02-17 04:59:00,
2013-02-16 21:00:00,42.8,38.0,29.79,SSE,158,2.2,2.2,83,0.00,,,0.00,WUHU216HW,2013-02-17 05:00:00,
2013-02-16 21:05:00,42.8,38.0,29.79,SSW,203,0.7,2.2,83,0.00,,,0.00,WUHU216HW,2013-02-17 05:05:00,
2013-02-16 21:10:00,42.8,38.0,29.79,SSE,158,1.8,2.5,83,0.00,,,0.00,WUHU216HW,2013-02-17 05:10:00,
2013-02-16 21:15:00,42.8,38.0,29.78,SSW,203,1.1,2.5,83,0.00,,,0.00,WUHU216HW,2013-02-17 05:15:00,
2013-02-16 21:20:00,42.8,38.0,29.79,SSW,203,0.7,1.1,83,0.00,,,0.00,WUHU216HW,2013-02-17 05:20:00,
2013-02-16 21:25:00,42.7,38.2,29.79,SW,225,0.7,1.1,84,0.00,,,0.00,WUHU216HW,2013-02-17 05:25:00,
2013-02-16 21:30:00,42.5,38.0,29.79,SSW,203,1.3,2.5,84,0.00,,,0.00,WUHU216HW,2013-02-17 05:30:00,
2013-02-16 21:35:00,42.5,38.0,29.79,SSW,203,0.9,2.5,84,0.00,,,0.00,WUHU216HW,2013-02-17 05:35:00,
2013-02-16 21:40:00,42.5,38.3,29.79,SW,225,1.3,1.8,85,0.00,,,0.00,WUHU216HW,2013-02-17 05:40:00,
2013-02-16 21:45:00,42.3,38.1,29.79,SSW,203,0.2,3.1,85,0.00,,,0.00,WUHU216HW,2013-02-17 05:45:00,
2013-02-16 21:50:00,42.1,37.9,29.79,SW,225,4.0,4.0,85,0.00,,,0.00,WUHU216HW,2013-02-17 05:50:00,
2013-02-16 21:55:00,42.1,37.9,29.79,SSW,203,1.8,4.0,85,0.00,,,0.00,WUHU216HW,2013-02-17 05:55:00,
2013-02-16 22:00:00,41.9,37.7,29.79,SW,225,0.4,2.7,85,0.00,,,0.00,WUHU216HW,2013-02-17 06:00:00,
2013-02-16 22:05:00,41.9,37.7,29.79,West,270,0.9,2.7,85,0.00,,,0.00,WUHU216HW,2013-02-17 06:05:00,
2013-02-16 22:10:00,41.9,37.7,29.79,SW,225,0.4,3.8,85,0.00,,,0.00,WUHU216HW,2013-02-17 06:10:00,
2013-02-16 22:15:00,41.9,37.7,29.79,South,180,1.1,3.8,85,0.00,,,0.00,WUHU216HW,2013-02-17 06:15:00,
2013-02-16 22:20:00,41.8,37.5,29.79,SW,225,2.2,2.5,85,0.00,,,0.00,WUHU216HW,2013-02-17 06:20:00,
2013-02-16 22:25:00,41.8,37.5,29.79,SW,225,1.1,2.5,85,0.00,,,0.00,WUHU216HW,2013-02-17 06:25:00,
2013-02-16 22:30:00,41.8,37.5,29.80,SSW,203,0.2,2.5,85,0.00,,,0.00,WUHU216HW,2013-02-17 06:30:00,
2013-02-16 22:35:00,41.8,37.5,29.79,SSW,203,0.2,0.9,85,0.00,,,0.00,WUHU216HW,2013-02-17 06:35:00,
2013-02-16 22:40:00,41.8,37.3,29.80,SW,225,1.3,2.2,84,0.00,,,0.00,WUHU216HW,2013-02-17 06:40:00,
2013-02-16 22:45:00,41.6,37.1,29.80,SSW,203,2.5,3.4,84,0.00,,,0.00,WUHU216HW,2013-02-17 06:45:00,
2013-02-16 22:50:00,41.6,37.1,29.79,SSW,203,1.8,3.4,84,0.00,,,0.00,WUHU216HW,2013-02-17 06:50:00,
2013-02-16 22:55:00,41.4,36.9,29.80,SW,225,2.5,4.7,84,0.00,,,0.00,WUHU216HW,2013-02-17 06:55:00,
2013-02-16 23:00:00,41.4,36.9,29.80,SW,225,2.0,4.7,84,0.00,,,0.00,WUHU216HW,2013-02-17 07:00:00,
2013-02-16 23:05:00,41.4,36.9,29.80,SW,225,3.4,3.4,84,0.00,,,0.00,WUHU216HW,2013-02-17 07:05:00,
2013-02-16 23:10:00,41.4,36.9,29.80,South,180,2.0,3.4,84,0.00,,,0.00,WUHU216HW,2013-02-17 07:10:00,
2013-02-16 23:15:00,41.4,36.9,29.80,SW,225,1.1,3.4,84,0.00,,,0.00,WUHU216HW,2013-02-17 07:15:00,
2013-02-16 23:20:00,41.4,36.9,29.81,SE,135,0.9,2.2,84,0.00,,,0.00,WUHU216HW,2013-02-17 07:20:00,
2013-02-16 23:25:00,41.2,36.7,29.81,SW,225,1.6,1.6,84,0.00,,,0.00,WUHU216HW,2013-02-17 07:25:00,
2013-02-16 23:30:00,41.2,36.7,29.80,SSW,203,0.4,1.8,84,0.00,,,0.00,WUHU216HW,2013-02-17 07:30:00,
2013-02-16 23:35:00,41.2,36.7,29.81,SE,135,1.6,1.8,84,0.00,,,0.00,WUHU216HW,2013-02-17 07:35:00,
2013-02-16 23:40:00,41.2,37.0,29.81,SSE,158,0.2,1.8,85,0.00,,,0.00,WUHU216HW,2013-02-17 07:40:00,
2013-02-16 23:45:00,41.0,36.8,29.80,SSE,158,0.7,1.8,85,0.00,,,0.00,WUHU216HW,2013-02-17 07:45:00,
2013-02-16 23:50:00,41.0,36.8,29.81,SSE,158,0.9,1.1,85,0.00,,,0.00,WUHU216HW,2013-02-17 07:50:00,
2013-02-16 23:55:00,41.0,36.8,29.81,SSE,158,0.0,1.1,85,0.00,,,0.00,WUHU216HW,2013-02-17 07:55:00,